Time,TemperatureF,DewpointF,PressureIn,WindDirection,WindDirectionDegrees,WindSpeedMPH,WindSpeedGustMPH,Humidity,HourlyPrecipIn,Conditions,Clouds,dailyrainin,SolarRadiationWatts/m^2,SoftwareType,DateUTC
2013-05-31 00:02:00,79.3,26.1,-100.00,SE,134,4.0,16.0,14,0.01,,,0.04,0.0,meteohub,2013-05-31 04:02:00,
2013-05-31 00:07:00,79.0,23.9,-100.00,South,171,9.0,16.0,13,0.01,,,0.04,0.0,meteohub,2013-05-31 04:07:00,
2013-05-31 00:12:00,78.6,23.7,-100.00,SE,129,12.0,16.0,13,0.01,,,0.04,0.0,meteohub,2013-05-31 04:12:00,
2013-05-31 00:17:00,79.0,23.9,-100.00,SE,136,14.0,16.0,13,0.01,,,0.04,0.0,meteohub,2013-05-31 04:17:00,
2013-05-31 00:22:00,79.0,23.9,-100.00,SSW,192,6.0,16.0,13,0.01,,,0.04,0.0,meteohub,2013-05-31 04:22:00,
2013-05-31 00:27:00,78.6,23.7,-100.00,South,180,6.0,16.0,13,0.01,,,0.04,0.0,meteohub,2013-05-31 04:27:00,
2013-05-31 00:32:00,78.6,23.7,-100.00,SE,145,9.0,16.0,13,0.00,,,0.04,0.0,meteohub,2013-05-31 04:32:00,
2013-05-31 00:42:00,78.4,21.6,-100.00,SSE,166,11.0,17.0,12,0.00,,,0.04,0.0,meteohub,2013-05-31 04:42:00,
2013-05-31 00:47:00,77.7,21.0,-100.00,South,175,14.0,17.0,12,0.00,,,0.04,0.0,meteohub,2013-05-31 04:47:00,
2013-05-31 00:52:00,77.7,21.0,-100.00,SSW,200,7.0,17.0,12,0.00,,,0.04,0.0,meteohub,2013-05-31 04:52:00,
2013-05-31 00:57:00,77.9,23.2,-100.00,SE,129,10.0,17.0,13,0.00,,,0.04,0.0,meteohub,2013-05-31 04:57:00,
2013-05-31 01:02:00,78.3,26.8,-100.00,SSW,207,12.0,17.0,15,0.00,,,0.04,0.0,meteohub,2013-05-31 05:02:00,
2013-05-31 01:07:00,78.8,27.3,-100.00,SE,136,7.0,17.0,15,0.00,,,0.04,0.0,meteohub,2013-05-31 05:07:00,
2013-05-31 01:12:00,78.6,25.5,-100.00,South,169,3.0,17.0,14,0.00,,,0.04,0.0,meteohub,2013-05-31 05:12:00,
2013-05-31 01:17:00,78.3,23.4,-100.00,South,185,5.0,17.0,13,0.00,,,0.04,0.0,meteohub,2013-05-31 05:17:00,
2013-05-31 01:22:00,78.4,25.3,-100.00,SE,146,11.0,17.0,14,0.00,,,0.04,0.0,meteohub,2013-05-31 05:22:00,
2013-05-31 01:27:00,79.0,25.7,-100.00,SSW,195,12.0,17.0,14,0.00,,,0.04,0.0,meteohub,2013-05-31 05:27:00,
2013-05-31 01:32:00,79.5,27.9,-100.00,SE,146,10.0,17.0,15,0.00,,,0.04,0.0,meteohub,2013-05-31 05:32:00,
2013-05-31 01:37:00,79.3,26.1,-100.00,South,169,3.0,15.0,14,0.00,,,0.04,0.0,meteohub,2013-05-31 05:37:00,
2013-05-31 01:42:00,79.2,25.9,-100.00,SSW,198,6.0,15.0,14,0.00,,,0.04,0.0,meteohub,2013-05-31 05:42:00,
2013-05-31 01:47:00,79.5,27.9,-100.00,SW,232,9.0,15.0,15,0.00,,,0.04,0.0,meteohub,2013-05-31 05:47:00,
2013-05-31 01:52:00,79.3,27.7,-100.00,SW,229,4.0,15.0,15,0.00,,,0.04,0.0,meteohub,2013-05-31 05:52:00,
2013-05-31 01:57:00,79.3,29.3,-100.00,SSE,161,5.0,15.0,16,0.00,,,0.04,0.0,meteohub,2013-05-31 05:57:00,
2013-05-31 02:02:00,79.3,29.3,-100.00,SE,146,12.0,15.0,16,0.00,,,0.04,0.0,meteohub,2013-05-31 06:02:00,
2013-05-31 02:07:00,79.5,30.9,-100.00,SSW,202,13.0,15.0,17,0.00,,,0.04,0.0,meteohub,2013-05-31 06:07:00,
2013-05-31 02:12:00,79.3,29.3,-100.00,SSW,198,5.0,15.0,16,0.00,,,0.04,0.0,meteohub,2013-05-31 06:12:00,
2013-05-31 02:17:00,79.3,27.7,-100.00,SE,146,10.0,17.0,15,0.00,,,0.04,0.0,meteohub,2013-05-31 06:17:00,
2013-05-31 02:22:00,79.3,29.3,-100.00,SSW,192,9.0,17.0,16,0.00,,,0.04,0.0,meteohub,2013-05-31 06:22:00,
2013-05-31 02:27:00,79.3,30.7,-100.00,SSW,207,10.0,17.0,17,0.00,,,0.04,0.0,meteohub,2013-05-31 06:27:00,
2013-05-31 02:32:00,79.3,29.3,-100.00,SSE,151,11.0,17.0,16,0.00,,,0.04,0.0,meteohub,2013-05-31 06:32:00,
2013-05-31 02:37:00,79.3,29.3,-100.00,SE,144,12.0,17.0,16,0.00,,,0.04,0.0,meteohub,2013-05-31 06:37:00,
2013-05-31 02:42:00,79.3,29.3,-100.00,ESE,103,10.0,17.0,16,0.00,,,0.04,0.0,meteohub,2013-05-31 06:42:00,
2013-05-31 02:47:00,79.5,29.5,-100.00,South,174,9.0,17.0,16,0.00,,,0.04,0.0,meteohub,2013-05-31 06:47:00,
2013-05-31 02:52:00,79.3,27.7,-100.00,South,188,3.0,17.0,15,0.00,,,0.04,0.0,meteohub,2013-05-31 06:52:00,
2013-05-31 02:57:00,79.5,27.9,-100.00,SSW,213,13.0,17.0,15,0.00,,,0.04,0.0,meteohub,2013-05-31 06:57:00,
2013-05-31 03:02:00,79.3,27.7,-100.00,SE,144,7.0,17.0,15,0.00,,,0.04,0.0,meteohub,2013-05-31 07:02:00,
2013-05-31 03:07:00,79.3,26.1,-100.00,West,267,7.0,17.0,14,0.00,,,0.04,0.0,meteohub,2013-05-31 07:07:00,
2013-05-31 03:12:00,79.3,26.1,-100.00,West,267,11.0,17.0,14,0.00,,,0.04,0.0,meteohub,2013-05-31 07:12:00,
2013-05-31 03:17:00,79.2,24.1,-100.00,ESE,123,10.0,17.0,13,0.00,,,0.04,0.0,meteohub,2013-05-31 07:17:00,
2013-05-31 03:22:00,78.6,23.7,-100.00,SSW,192,5.0,17.0,13,0.00,,,0.04,0.0,meteohub,2013-05-31 07:22:00,
2013-05-31 03:27:00,78.6,23.7,-100.00,SSW,209,7.0,17.0,13,0.01,,,0.04,0.0,meteohub,2013-05-31 07:27:00,
2013-05-31 03:32:00,78.3,21.6,-100.00,SSW,193,8.0,15.0,12,0.01,,,0.04,0.0,meteohub,2013-05-31 07:32:00,
2013-05-31 03:37:00,78.1,21.4,-100.00,SW,234,10.0,15.0,12,0.01,,,0.04,0.0,meteohub,2013-05-31 07:37:00,
2013-05-31 03:42:00,78.4,21.6,-100.00,SSW,195,11.0,15.0,12,0.01,,,0.04,0.0,meteohub,2013-05-31 07:42:00,
2013-05-31 03:47:00,78.4,23.5,-100.00,South,186,5.0,15.0,13,0.01,,,0.04,0.0,meteohub,2013-05-31 07:47:00,
2013-05-31 03:52:00,78.3,23.4,-100.00,South,178,9.0,15.0,13,0.01,,,0.06,0.0,meteohub,2013-05-31 07:52:00,
2013-05-31 03:57:00,78.4,23.5,-100.00,SSW,200,9.0,15.0,13,0.01,,,0.06,0.0,meteohub,2013-05-31 07:57:00,
2013-05-31 04:02:00,78.4,23.5,-100.00,SSE,167,9.0,15.0,13,0.02,,,0.06,0.0,meteohub,2013-05-31 08:02:00,
2013-05-31 04:07:00,78.6,23.7,-100.00,SSW,195,7.0,15.0,13,0.02,,,0.06,0.0,meteohub,2013-05-31 08:07:00,
2013-05-31 04:12:00,78.6,23.7,-100.00,SSE,150,2.0,16.0,13,0.02,,,0.06,0.0,meteohub,2013-05-31 08:12:00,
2013-05-31 04:17:00,78.6,23.7,-100.00,SE,138,6.0,16.0,13,0.02,,,0.06,0.0,meteohub,2013-05-31 08:17:00,
2013-05-31 04:22:00,79.2,24.1,-100.00,South,182,5.0,16.0,13,0.02,,,0.06,0.0,meteohub,2013-05-31 08:22:00,
2013-05-31 04:32:00,79.0,23.9,-100.00,SW,229,8.0,16.0,13,0.02,,,0.06,0.0,meteohub,2013-05-31 08:32:00,
2013-05-31 04:37:00,79.0,23.9,-100.00,SSW,194,6.0,16.0,13,0.02,,,0.06,0.0,meteohub,2013-05-31 08:37:00,
2013-05-31 04:42:00,79.2,24.1,-100.00,South,180,6.0,16.0,13,0.02,,,0.06,0.0,meteohub,2013-05-31 08:42:00,
2013-05-31 04:47:00,79.3,24.3,-100.00,SSW,205,5.0,16.0,13,0.00,,,0.06,0.0,meteohub,2013-05-31 08:47:00,
2013-05-31 04:52:00,79.2,24.1,-100.00,SSW,199,9.0,15.0,13,0.00,,,0.06,0.0,meteohub,2013-05-31 08:52:00,
2013-05-31 04:57:00,79.2,24.1,-100.00,South,179,6.0,15.0,13,0.00,,,0.06,0.0,meteohub,2013-05-31 08:57:00,
2013-05-31 05:02:00,79.3,22.3,-100.00,SW,219,8.0,15.0,12,0.00,,,0.06,0.0,meteohub,2013-05-31 09:02:00,
2013-05-31 05:07:00,79.0,23.9,-100.00,South,172,5.0,15.0,13,0.00,,,0.06,0.0,meteohub,2013-05-31 09:07:00,
2013-05-31 05:12:00,78.4,21.6,-100.00,SSW,209,6.0,15.0,12,0.00,,,0.06,0.0,meteohub,2013-05-31 09:12:00,
2013-05-31 05:22:00,78.3,21.6,-100.00,SSE,168,5.0,15.0,12,0.00,,,0.06,0.0,meteohub,2013-05-31 09:22:00,
2013-05-31 05:27:00,78.3,21.6,-100.00,South,190,1.0,14.0,12,0.00,,,0.06,0.0,meteohub,2013-05-31 09:27:00,
2013-05-31 05:32:00,78.3,21.6,-100.00,South,171,5.0,14.0,12,0.00,,,0.06,0.0,meteohub,2013-05-31 09:32:00,
2013-05-31 05:37:00,78.3,21.6,-100.00,South,177,6.0,14.0,12,0.00,,,0.06,0.0,meteohub,2013-05-31 09:37:00,
2013-05-31 05:42:00,77.7,21.0,-100.00,SSW,211,5.0,14.0,12,0.00,,,0.06,0.0,meteohub,2013-05-31 09:42:00,
2013-05-31 05:47:00,77.7,21.0,-100.00,South,172,4.0,14.0,12,0.00,,,0.06,0.0,meteohub,2013-05-31 09:47:00,
2013-05-31 05:52:00,77.5,20.8,-100.00,South,179,3.0,14.0,12,0.00,,,0.06,0.0,meteohub,2013-05-31 09:52:00,
2013-05-31 05:57:00,77.7,21.0,-100.00,South,171,3.0,14.0,12,0.00,,,0.06,0.0,meteohub,2013-05-31 09:57:00,
2013-05-31 06:02:00,77.7,21.0,-100.00,SSE,161,2.0,12.0,12,0.00,,,0.06,0.0,meteohub,2013-05-31 10:02:00,
2013-05-31 06:07:00,78.1,21.4,-100.00,SE,144,8.0,12.0,12,0.00,,,0.06,0.0,meteohub,2013-05-31 10:07:00,
2013-05-31 06:12:00,78.3,21.6,-100.00,South,182,3.0,12.0,12,0.00,,,0.06,0.0,meteohub,2013-05-31 10:12:00,
2013-05-31 06:17:00,78.4,21.6,-100.00,SE,144,3.0,12.0,12,0.00,,,0.06,0.0,meteohub,2013-05-31 10:17:00,
2013-05-31 06:22:00,78.4,21.6,-100.00,SSE,151,6.0,12.0,12,0.00,,,0.06,0.0,meteohub,2013-05-31 10:22:00,
2013-05-31 06:27:00,77.7,23.0,-100.00,SSE,160,4.0,12.0,13,0.00,,,0.06,0.0,meteohub,2013-05-31 10:27:00,
2013-05-31 06:32:00,77.7,23.0,-100.00,SSW,207,8.0,12.0,13,0.00,,,0.06,0.0,meteohub,2013-05-31 10:32:00,
2013-05-31 06:37:00,77.7,23.0,-100.00,SSW,204,5.0,12.0,13,0.00,,,0.12,7.0,meteohub,2013-05-31 10:37:00,
2013-05-31 06:42:00,77.5,22.8,-100.00,SSW,207,7.0,12.0,13,0.00,,,0.12,12.0,meteohub,2013-05-31 10:42:00,
2013-05-31 06:47:00,77.5,22.8,-100.00,South,171,4.0,12.0,13,0.00,,,0.12,14.0,meteohub,2013-05-31 10:47:00,
2013-05-31 06:52:00,77.5,24.6,-100.00,SSE,149,1.0,12.0,14,0.06,,,0.12,16.0,meteohub,2013-05-31 10:52:00,
2013-05-31 06:57:00,77.5,24.6,-100.00,SW,215,5.0,14.0,14,0.06,,,0.12,25.0,meteohub,2013-05-31 10:57:00,
2013-05-31 07:02:00,77.7,23.0,-100.00,SE,141,11.0,14.0,13,0.06,,,0.12,79.0,meteohub,2013-05-31 11:02:00,
2013-05-31 07:07:00,78.3,23.4,-100.00,SW,214,3.0,14.0,13,0.06,,,0.12,120.0,meteohub,2013-05-31 11:07:00,
2013-05-31 07:12:00,78.4,23.5,-100.00,South,186,9.0,14.0,13,0.06,,,0.12,148.0,meteohub,2013-05-31 11:12:00,
2013-05-31 07:17:00,78.6,21.7,-100.00,SSW,201,9.0,14.0,12,0.06,,,0.12,163.0,meteohub,2013-05-31 11:17:00,
2013-05-31 07:22:00,79.2,22.1,-100.00,SSE,156,9.0,14.0,12,0.06,,,0.12,107.0,meteohub,2013-05-31 11:22:00,
2013-05-31 07:27:00,79.2,22.1,-100.00,SW,226,5.0,14.0,12,0.06,,,0.12,98.0,meteohub,2013-05-31 11:27:00,
2013-05-31 07:32:00,79.0,22.1,-100.00,SE,134,11.0,14.0,12,0.06,,,0.12,63.0,meteohub,2013-05-31 11:32:00,
2013-05-31 07:37:00,78.8,21.9,-100.00,SSE,152,6.0,14.0,12,0.06,,,0.12,47.0,meteohub,2013-05-31 11:37:00,
2013-05-31 07:42:00,78.3,21.6,-100.00,SSE,150,6.0,14.0,12,0.06,,,0.12,77.0,meteohub,2013-05-31 11:42:00,
2013-05-31 07:47:00,78.3,21.6,-100.00,SSW,203,7.0,14.0,12,0.03,,,0.12,135.0,meteohub,2013-05-31 11:47:00,
2013-05-31 07:52:00,78.6,21.7,-100.00,SE,125,9.0,16.0,12,0.03,,,0.12,156.0,meteohub,2013-05-31 11:52:00,
2013-05-31 07:57:00,79.0,22.1,-100.00,SW,216,7.0,16.0,12,0.03,,,0.12,188.0,meteohub,2013-05-31 11:57:00,
2013-05-31 08:02:00,79.2,22.1,-100.00,NE,46,5.0,16.0,12,0.03,,,0.12,114.0,meteohub,2013-05-31 12:02:00,
2013-05-31 08:12:00,79.5,22.5,-100.00,East,84,5.0,16.0,12,0.03,,,0.15,211.0,meteohub,2013-05-31 12:12:00,
2013-05-31 08:17:00,79.5,22.5,-100.00,SSE,152,5.0,16.0,12,0.03,,,0.15,211.0,meteohub,2013-05-31 12:17:00,
2013-05-31 08:22:00,79.9,22.8,-100.00,SSE,148,7.0,16.0,12,0.03,,,0.15,297.0,meteohub,2013-05-31 12:22:00,
2013-05-31 08:27:00,80.1,22.8,-100.00,South,182,7.0,14.0,12,0.03,,,0.15,207.0,meteohub,2013-05-31 12:27:00,
2013-05-31 08:32:00,80.2,23.0,-100.00,SSW,211,11.0,14.0,12,0.03,,,0.15,185.0,meteohub,2013-05-31 12:32:00,
2013-05-31 08:37:00,80.1,22.8,-100.00,SE,136,5.0,14.0,12,0.03,,,0.15,144.0,meteohub,2013-05-31 12:37:00,
2013-05-31 08:42:00,80.1,22.8,-100.00,SW,221,10.0,14.0,12,0.03,,,0.15,213.0,meteohub,2013-05-31 12:42:00,
2013-05-31 08:47:00,80.2,23.0,-100.00,SSW,197,5.0,14.0,12,0.03,,,0.15,209.0,meteohub,2013-05-31 12:47:00,
2013-05-31 08:52:00,80.2,23.0,-100.00,NNE,22,5.0,14.0,12,0.03,,,0.15,186.0,meteohub,2013-05-31 12:52:00,
2013-05-31 08:57:00,80.2,23.0,-100.00,South,191,7.0,14.0,12,0.03,,,0.15,251.0,meteohub,2013-05-31 12:57:00,
2013-05-31 09:02:00,80.2,23.0,-100.00,SSW,194,4.0,14.0,12,0.00,,,0.15,162.0,meteohub,2013-05-31 13:02:00,
2013-05-31 09:07:00,80.2,23.0,-100.00,South,178,6.0,14.0,12,0.00,,,0.15,105.0,meteohub,2013-05-31 13:07:00,
2013-05-31 09:12:00,80.2,23.0,-100.00,SW,214,5.0,14.0,12,0.00,,,0.15,183.0,meteohub,2013-05-31 13:12:00,
2013-05-31 09:17:00,80.1,22.8,-100.00,SW,227,11.0,14.0,12,0.00,,,0.15,236.0,meteohub,2013-05-31 13:17:00,
2013-05-31 09:22:00,80.4,23.2,-100.00,SW,228,7.0,14.0,12,0.00,,,0.15,178.0,meteohub,2013-05-31 13:22:00,
2013-05-31 09:27:00,80.2,23.0,-100.00,SE,134,6.0,14.0,12,0.00,,,0.15,102.0,meteohub,2013-05-31 13:27:00,
2013-05-31 09:32:00,80.2,23.0,-100.00,SSW,207,10.0,14.0,12,0.00,,,0.15,380.0,meteohub,2013-05-31 13:32:00,
2013-05-31 09:37:00,80.8,23.4,-100.00,SE,138,6.0,14.0,12,0.00,,,0.15,341.0,meteohub,2013-05-31 13:37:00,
2013-05-31 09:42:00,81.0,23.5,-100.00,SW,227,10.0,14.0,12,0.00,,,0.15,345.0,meteohub,2013-05-31 13:42:00,
2013-05-31 09:47:00,81.0,23.5,-100.00,East,87,6.0,15.0,12,0.00,,,0.15,290.0,meteohub,2013-05-31 13:47:00,
2013-05-31 09:52:00,81.3,23.9,-100.00,SSW,213,7.0,15.0,12,0.00,,,0.15,492.0,meteohub,2013-05-31 13:52:00,
2013-05-31 09:57:00,81.9,24.3,-100.00,WSW,248,4.0,15.0,12,0.00,,,0.15,390.0,meteohub,2013-05-31 13:57:00,
2013-05-31 10:02:00,81.9,26.2,-100.00,SSW,196,5.0,15.0,13,0.00,,,0.15,381.0,meteohub,2013-05-31 14:02:00,
2013-05-31 10:07:00,82.0,24.4,-100.00,SW,227,6.0,15.0,12,0.00,,,0.15,390.0,meteohub,2013-05-31 14:07:00,
2013-05-31 10:12:00,82.4,26.6,-100.00,SSW,210,6.0,15.0,13,0.00,,,0.15,385.0,meteohub,2013-05-31 14:12:00,
2013-05-31 10:17:00,82.2,26.4,-100.00,SSW,196,4.0,15.0,13,0.00,,,0.15,373.0,meteohub,2013-05-31 14:17:00,
2013-05-31 10:22:00,82.4,26.6,-100.00,WSW,250,7.0,15.0,13,0.00,,,0.15,373.0,meteohub,2013-05-31 14:22:00,
2013-05-31 10:27:00,82.6,26.8,-100.00,SW,218,6.0,15.0,13,0.00,,,0.15,290.0,meteohub,2013-05-31 14:27:00,
2013-05-31 10:32:00,82.6,26.8,-100.00,SSW,202,10.0,15.0,13,0.00,,,0.15,645.0,meteohub,2013-05-31 14:32:00,
2013-05-31 10:37:00,82.8,27.0,-100.00,SE,138,10.0,15.0,13,0.00,,,0.15,981.0,meteohub,2013-05-31 14:37:00,
2013-05-31 10:42:00,82.8,27.0,-100.00,SSW,207,9.0,15.0,13,0.00,,,0.15,294.0,meteohub,2013-05-31 14:42:00,
2013-05-31 10:47:00,82.9,27.0,-100.00,SSW,209,10.0,15.0,13,0.00,,,0.15,494.0,meteohub,2013-05-31 14:47:00,
2013-05-31 10:52:00,82.9,27.0,-100.00,SSW,213,8.0,15.0,13,0.00,,,0.15,844.0,meteohub,2013-05-31 14:52:00,
2013-05-31 10:57:00,82.9,28.8,-100.00,SSW,200,7.0,15.0,14,0.00,,,0.15,309.0,meteohub,2013-05-31 14:57:00,
2013-05-31 11:02:00,82.9,28.8,-100.00,SSW,210,4.0,16.0,14,0.00,,,0.15,287.0,meteohub,2013-05-31 15:02:00,
2013-05-31 11:07:00,83.1,27.1,-100.00,SSE,155,6.0,16.0,13,0.00,,,0.15,981.0,meteohub,2013-05-31 15:07:00,
2013-05-31 11:12:00,83.1,27.1,-100.00,SW,230,9.0,16.0,13,0.00,,,0.15,789.0,meteohub,2013-05-31 15:12:00,
2013-05-31 11:17:00,83.3,27.3,-100.00,SSE,167,6.0,16.0,13,0.00,,,0.15,918.0,meteohub,2013-05-31 15:17:00,
2013-05-31 11:22:00,82.9,27.0,-100.00,SE,144,5.0,15.0,13,0.00,,,0.15,353.0,meteohub,2013-05-31 15:22:00,
2013-05-31 11:27:00,83.5,25.5,-100.00,South,173,6.0,15.0,12,0.00,,,0.15,1236.0,meteohub,2013-05-31 15:27:00,
2013-05-31 11:37:00,83.1,32.4,-100.00,SW,222,11.0,15.0,16,0.00,,,0.15,385.0,meteohub,2013-05-31 15:37:00,
2013-05-31 11:42:00,82.6,26.8,-100.00,SSW,192,13.0,17.0,13,0.00,,,0.15,420.0,meteohub,2013-05-31 15:42:00,
2013-05-31 11:47:00,82.8,27.0,-100.00,SW,231,6.0,17.0,13,0.00,,,0.15,413.0,meteohub,2013-05-31 15:47:00,
2013-05-31 11:57:00,82.9,27.0,-100.00,SW,216,4.0,17.0,13,0.00,,,0.15,547.0,meteohub,2013-05-31 15:57:00,
2013-05-31 12:02:00,83.1,28.9,-100.00,South,183,10.0,17.0,14,0.00,,,0.15,459.0,meteohub,2013-05-31 16:02:00,
2013-05-31 12:07:00,83.1,27.1,-100.00,SSW,197,5.0,17.0,13,0.00,,,0.15,431.0,meteohub,2013-05-31 16:07:00,
2013-05-31 12:12:00,83.1,27.1,-100.00,SW,228,9.0,14.0,13,0.00,,,0.15,434.0,meteohub,2013-05-31 16:12:00,
2013-05-31 12:17:00,82.8,27.0,-100.00,South,173,4.0,14.0,13,0.00,,,0.15,596.0,meteohub,2013-05-31 16:17:00,
2013-05-31 12:22:00,83.1,27.1,-100.00,SE,138,7.0,14.0,13,0.00,,,0.15,538.0,meteohub,2013-05-31 16:22:00,
2013-05-31 12:27:00,83.7,29.5,-100.00,NNW,334,5.0,14.0,14,0.00,,,0.15,1197.0,meteohub,2013-05-31 16:27:00,
2013-05-31 12:32:00,84.4,30.0,-100.00,SSW,211,3.0,14.0,14,0.00,,,0.15,1197.0,meteohub,2013-05-31 16:32:00,
2013-05-31 12:37:00,83.8,32.9,-100.00,SE,143,11.0,14.0,16,0.00,,,0.15,1197.0,meteohub,2013-05-31 16:37:00,
2013-05-31 12:42:00,84.0,31.5,-100.00,SE,129,5.0,14.0,15,0.00,,,0.15,904.0,meteohub,2013-05-31 16:42:00,
2013-05-31 12:47:00,84.9,33.8,-100.00,South,182,4.0,14.0,16,0.00,,,0.15,1028.0,meteohub,2013-05-31 16:47:00,
2013-05-31 12:52:00,84.7,35.1,-100.00,SSW,211,6.0,19.0,17,0.00,,,0.15,371.0,meteohub,2013-05-31 16:52:00,
2013-05-31 12:57:00,84.9,35.2,-100.00,SSW,198,7.0,19.0,17,0.00,,,0.15,1072.0,meteohub,2013-05-31 16:57:00,
2013-05-31 13:02:00,84.0,36.0,-100.00,SW,218,11.0,19.0,18,0.00,,,0.15,163.0,meteohub,2013-05-31 17:02:00,
2013-05-31 13:07:00,82.9,30.6,-100.00,SE,134,3.0,19.0,15,0.00,,,0.15,285.0,meteohub,2013-05-31 17:07:00,
2013-05-31 13:12:00,82.8,25.0,-100.00,SSE,164,6.0,19.0,12,0.00,,,0.15,383.0,meteohub,2013-05-31 17:12:00,
2013-05-31 13:17:00,82.8,25.0,-100.00,South,187,10.0,19.0,12,0.00,,,0.15,506.0,meteohub,2013-05-31 17:17:00,
2013-05-31 13:22:00,83.7,27.7,-100.00,West,259,6.0,14.0,13,0.00,,,0.15,707.0,meteohub,2013-05-31 17:22:00,
2013-05-31 13:27:00,84.0,33.1,-100.00,WSW,240,5.0,14.0,16,0.00,,,0.15,707.0,meteohub,2013-05-31 17:27:00,
2013-05-31 13:32:00,84.7,33.6,-100.00,ESE,115,11.0,14.0,16,0.00,,,0.15,807.0,meteohub,2013-05-31 17:32:00,
2013-05-31 13:37:00,84.9,38.1,-100.00,WSW,237,5.0,14.0,19,0.00,,,0.15,1146.0,meteohub,2013-05-31 17:37:00,
2013-05-31 13:42:00,84.7,36.5,-100.00,SW,215,5.0,14.0,18,0.00,,,0.15,1143.0,meteohub,2013-05-31 17:42:00,
2013-05-31 13:47:00,85.3,37.0,-100.00,West,265,8.0,15.0,18,0.00,,,0.15,1004.0,meteohub,2013-05-31 17:47:00,
2013-05-31 13:52:00,85.6,38.7,-100.00,SW,215,7.0,15.0,19,0.00,,,0.15,1055.0,meteohub,2013-05-31 17:52:00,
2013-05-31 13:57:00,85.6,38.7,-100.00,West,267,6.0,15.0,19,0.00,,,0.15,459.0,meteohub,2013-05-31 17:57:00,
2013-05-31 14:02:00,85.3,41.0,-100.00,SW,229,7.0,15.0,21,0.00,,,0.15,517.0,meteohub,2013-05-31 18:02:00,
2013-05-31 14:07:00,84.9,40.6,-100.00,South,186,5.0,15.0,21,0.00,,,0.15,510.0,meteohub,2013-05-31 18:07:00,
2013-05-31 14:12:00,84.9,38.1,-100.00,SSE,153,7.0,15.0,19,0.00,,,0.15,1346.0,meteohub,2013-05-31 18:12:00,
2013-05-31 14:17:00,83.8,37.2,-100.00,SSW,211,10.0,16.0,19,0.00,,,0.15,162.0,meteohub,2013-05-31 18:17:00,
2013-05-31 14:22:00,83.1,30.7,-100.00,SSW,199,4.0,16.0,15,0.00,,,0.15,269.0,meteohub,2013-05-31 18:22:00,
2013-05-31 14:27:00,82.6,28.6,-100.00,SSW,200,7.0,16.0,14,0.00,,,0.15,396.0,meteohub,2013-05-31 18:27:00,
2013-05-31 14:32:00,82.0,24.4,-100.00,SSE,148,3.0,16.0,12,0.00,,,0.15,441.0,meteohub,2013-05-31 18:32:00,
2013-05-31 14:37:00,82.0,22.3,-100.00,ESE,115,6.0,16.0,11,0.00,,,0.15,387.0,meteohub,2013-05-31 18:37:00,
2013-05-31 14:42:00,81.1,21.6,-100.00,SW,225,9.0,16.0,11,0.00,,,0.15,295.0,meteohub,2013-05-31 18:42:00,
2013-05-31 14:47:00,80.1,22.8,-100.00,SSW,205,4.0,16.0,12,0.00,,,0.15,295.0,meteohub,2013-05-31 18:47:00,
2013-05-31 14:52:00,79.9,22.8,-100.00,SSW,196,5.0,16.0,12,0.00,,,0.18,429.0,meteohub,2013-05-31 18:52:00,
2013-05-31 14:57:00,79.5,24.4,-100.00,SE,132,4.0,16.0,13,0.00,,,0.18,359.0,meteohub,2013-05-31 18:57:00,
2013-05-31 15:02:00,79.3,24.3,-100.00,SSE,167,7.0,12.0,13,0.04,,,0.18,396.0,meteohub,2013-05-31 19:02:00,
2013-05-31 15:07:00,79.2,24.1,-100.00,West,273,3.0,12.0,13,0.04,,,0.18,223.0,meteohub,2013-05-31 19:07:00,
2013-05-31 15:12:00,79.0,23.9,-100.00,East,91,5.0,12.0,13,0.04,,,0.18,316.0,meteohub,2013-05-31 19:12:00,
2013-05-31 15:17:00,79.0,25.7,-100.00,SW,236,10.0,12.0,14,0.04,,,0.19,429.0,meteohub,2013-05-31 19:17:00,
2013-05-31 15:22:00,79.3,26.1,-100.00,SW,215,3.0,12.0,14,0.04,,,0.19,628.0,meteohub,2013-05-31 19:22:00,
2013-05-31 15:32:00,79.7,26.2,-100.00,SSE,153,6.0,11.0,14,0.05,,,0.19,128.0,meteohub,2013-05-31 19:32:00,
2013-05-31 15:37:00,79.7,24.4,-100.00,SSW,206,8.0,11.0,13,0.05,,,0.19,109.0,meteohub,2013-05-31 19:37:00,
2013-05-31 15:42:00,79.5,22.5,-100.00,SSE,161,10.0,11.0,12,0.05,,,0.19,30.0,meteohub,2013-05-31 19:42:00,
2013-05-31 15:47:00,78.6,21.7,-100.00,SSW,203,7.0,11.0,12,0.05,,,0.20,18.0,meteohub,2013-05-31 19:47:00,
2013-05-31 15:52:00,78.1,23.2,-100.00,South,184,4.0,11.0,13,0.05,,,0.20,14.0,meteohub,2013-05-31 19:52:00,
2013-05-31 15:57:00,77.4,24.4,-100.00,South,190,5.0,14.0,14,0.03,,,0.20,39.0,meteohub,2013-05-31 19:57:00,
2013-05-31 16:02:00,76.8,24.1,-100.00,SSE,168,5.0,14.0,14,0.03,,,0.20,51.0,meteohub,2013-05-31 20:02:00,
2013-05-31 16:07:00,76.6,25.5,-100.00,SE,133,6.0,14.0,15,0.03,,,0.24,42.0,meteohub,2013-05-31 20:07:00,
2013-05-31 16:12:00,76.6,25.5,-100.00,ESE,123,6.0,14.0,15,0.03,,,0.24,49.0,meteohub,2013-05-31 20:12:00,
2013-05-31 16:17:00,76.6,25.5,-100.00,South,183,6.0,14.0,15,0.07,,,0.24,37.0,meteohub,2013-05-31 20:17:00,
2013-05-31 16:22:00,75.9,25.0,-100.00,SSE,149,9.0,14.0,15,0.07,,,0.24,56.0,meteohub,2013-05-31 20:22:00,
2013-05-31 16:27:00,75.7,26.4,-100.00,South,188,5.0,14.0,16,0.07,,,0.24,60.0,meteohub,2013-05-31 20:27:00,
2013-05-31 16:32:00,75.9,26.4,-100.00,South,170,6.0,14.0,16,0.07,,,0.28,102.0,meteohub,2013-05-31 20:32:00,
2013-05-31 16:42:00,76.3,26.8,-100.00,SSW,202,3.0,12.0,16,0.09,,,0.28,146.0,meteohub,2013-05-31 20:42:00,
2013-05-31 16:47:00,76.5,27.0,-100.00,South,172,4.0,12.0,16,0.09,,,0.28,70.0,meteohub,2013-05-31 20:47:00,
2013-05-31 16:52:00,76.3,26.8,-100.00,SE,133,7.0,12.0,16,0.09,,,0.28,83.0,meteohub,2013-05-31 20:52:00,
2013-05-31 16:57:00,75.7,26.4,-100.00,SSW,206,5.0,12.0,16,0.09,,,0.35,90.0,meteohub,2013-05-31 20:57:00,
2013-05-31 17:02:00,76.1,26.6,-100.00,SSW,196,6.0,12.0,16,0.14,,,0.35,114.0,meteohub,2013-05-31 21:02:00,
2013-05-31 17:07:00,76.5,27.0,-100.00,SE,142,2.0,14.0,16,0.14,,,0.35,116.0,meteohub,2013-05-31 21:07:00,
2013-05-31 17:12:00,76.6,27.1,-100.00,South,184,5.0,14.0,16,0.14,,,0.35,127.0,meteohub,2013-05-31 21:12:00,
2013-05-31 17:17:00,77.2,27.5,-100.00,SSW,200,4.0,14.0,16,0.14,,,0.35,125.0,meteohub,2013-05-31 21:17:00,
2013-05-31 17:22:00,77.4,27.7,-100.00,South,171,3.0,14.0,16,0.14,,,0.40,121.0,meteohub,2013-05-31 21:22:00,
2013-05-31 17:27:00,77.7,27.9,-100.00,South,188,6.0,14.0,16,0.14,,,0.40,169.0,meteohub,2013-05-31 21:27:00,
2013-05-31 17:32:00,78.1,28.2,-100.00,ESE,107,7.0,14.0,16,0.14,,,0.40,165.0,meteohub,2013-05-31 21:32:00,
2013-05-31 17:37:00,78.4,27.0,-100.00,SE,128,7.0,11.0,15,0.11,,,0.40,181.0,meteohub,2013-05-31 21:37:00,
2013-05-31 17:42:00,78.6,25.5,-100.00,ESE,106,3.0,11.0,14,0.11,,,0.40,183.0,meteohub,2013-05-31 21:42:00,
2013-05-31 17:47:00,79.3,26.1,-100.00,SW,230,3.0,11.0,14,0.11,,,0.40,183.0,meteohub,2013-05-31 21:47:00,
2013-05-31 17:52:00,79.9,24.6,-100.00,South,191,6.0,11.0,13,0.11,,,0.40,158.0,meteohub,2013-05-31 21:52:00,
2013-05-31 17:57:00,80.1,22.8,-100.00,South,190,1.0,11.0,12,0.11,,,0.40,90.0,meteohub,2013-05-31 21:57:00,
2013-05-31 18:02:00,79.9,22.8,-100.00,SSW,201,6.0,11.0,12,0.03,,,0.40,105.0,meteohub,2013-05-31 22:02:00,
2013-05-31 18:07:00,79.7,22.6,-100.00,South,173,4.0,11.0,12,0.03,,,0.40,114.0,meteohub,2013-05-31 22:07:00,
2013-05-31 18:12:00,79.5,22.5,-100.00,South,188,4.0,11.0,12,0.03,,,0.40,100.0,meteohub,2013-05-31 22:12:00,
2013-05-31 18:17:00,79.3,22.3,-100.00,WSW,239,2.0,11.0,12,0.03,,,0.40,105.0,meteohub,2013-05-31 22:17:00,
2013-05-31 18:22:00,79.3,24.3,-100.00,SSW,194,5.0,11.0,13,0.03,,,0.40,95.0,meteohub,2013-05-31 22:22:00,
2013-05-31 18:27:00,79.3,24.3,-100.00,SSE,160,6.0,11.0,13,0.03,,,0.40,33.0,meteohub,2013-05-31 22:27:00,
2013-05-31 18:32:00,78.3,23.4,-100.00,SSW,196,11.0,11.0,13,0.00,,,0.40,30.0,meteohub,2013-05-31 22:32:00,
2013-05-31 18:37:00,77.0,24.1,-100.00,SW,219,11.0,18.0,14,0.00,,,0.40,30.0,meteohub,2013-05-31 22:37:00,
2013-05-31 18:42:00,76.3,23.5,-100.00,SSE,161,6.0,18.0,14,0.00,,,0.40,35.0,meteohub,2013-05-31 22:42:00,
2013-05-31 18:47:00,76.1,25.2,-100.00,SSW,204,5.0,18.0,15,0.00,,,0.40,33.0,meteohub,2013-05-31 22:47:00,
2013-05-31 18:52:00,76.3,25.2,-100.00,SSE,149,9.0,18.0,15,0.00,,,0.40,33.0,meteohub,2013-05-31 22:52:00,
2013-05-31 18:57:00,76.1,25.2,-100.00,SSE,149,6.0,18.0,15,0.00,,,0.46,40.0,meteohub,2013-05-31 22:57:00,
2013-05-31 19:02:00,76.3,26.8,-100.00,SSW,207,3.0,18.0,16,0.00,,,0.46,35.0,meteohub,2013-05-31 23:02:00,
2013-05-31 19:07:00,76.3,26.8,-100.00,South,176,2.0,18.0,16,0.00,,,0.46,33.0,meteohub,2013-05-31 23:07:00,
2013-05-31 19:12:00,76.6,27.1,-100.00,SSE,168,2.0,18.0,16,0.06,,,0.46,12.0,meteohub,2013-05-31 23:12:00,
2013-05-31 19:17:00,76.6,27.1,-100.00,SSW,192,6.0,11.0,16,0.06,,,0.46,11.0,meteohub,2013-05-31 23:17:00,
2013-05-31 19:22:00,76.8,27.1,-100.00,SSW,192,2.0,11.0,16,0.06,,,0.46,12.0,meteohub,2013-05-31 23:22:00,
2013-05-31 19:27:00,76.8,27.1,-100.00,SSW,194,5.0,11.0,16,0.06,,,0.47,18.0,meteohub,2013-05-31 23:27:00,
2013-05-31 19:32:00,76.6,27.1,-100.00,ESE,121,6.0,11.0,16,0.06,,,0.47,23.0,meteohub,2013-05-31 23:32:00,
2013-05-31 19:42:00,76.8,27.1,-100.00,SSE,168,9.0,12.0,16,0.06,,,0.47,12.0,meteohub,2013-05-31 23:42:00,
2013-05-31 19:47:00,76.6,27.1,-100.00,SSW,200,8.0,12.0,16,0.06,,,0.47,0.0,meteohub,2013-05-31 23:47:00,
2013-05-31 19:52:00,76.5,25.3,-100.00,SSW,211,5.0,12.0,15,0.06,,,0.48,0.0,meteohub,2013-05-31 23:52:00,
2013-05-31 19:57:00,76.5,25.3,-100.00,South,185,4.0,12.0,15,0.06,,,0.48,0.0,meteohub,2013-05-31 23:57:00,
2013-05-31 20:02:00,76.5,25.3,-100.00,SSW,194,6.0,13.0,15,0.02,,,0.48,0.0,meteohub,2013-06-01 00:02:00,
2013-05-31 20:07:00,76.3,26.8,-100.00,SSW,209,6.0,13.0,16,0.02,,,0.48,0.0,meteohub,2013-06-01 00:07:00,
2013-05-31 20:12:00,76.3,26.8,-100.00,SE,142,5.0,13.0,16,0.02,,,0.48,0.0,meteohub,2013-06-01 00:12:00,
2013-05-31 20:17:00,76.6,27.1,-100.00,South,173,2.0,13.0,16,0.02,,,0.48,0.0,meteohub,2013-06-01 00:17:00,
2013-05-31 20:22:00,76.6,27.1,-100.00,South,184,6.0,13.0,16,0.02,,,0.48,0.0,meteohub,2013-06-01 00:22:00,
2013-05-31 20:27:00,76.3,26.8,-100.00,South,188,7.0,13.0,16,0.02,,,0.01,0.0,meteohub,2013-06-01 00:27:00,
2013-05-31 20:32:00,75.9,26.4,-100.00,South,187,0.0,13.0,16,0.02,,,0.01,0.0,meteohub,2013-06-01 00:32:00,
2013-05-31 20:37:00,75.9,26.4,-100.00,SSE,165,0.0,13.0,16,0.02,,,0.01,0.0,meteohub,2013-06-01 00:37:00,
2013-05-31 20:47:00,76.5,27.0,-100.00,SE,134,2.0,13.0,16,0.05,,,0.01,0.0,meteohub,2013-06-01 00:47:00,
2013-05-31 20:52:00,76.8,27.1,-100.00,South,189,4.0,13.0,16,0.05,,,0.01,0.0,meteohub,2013-06-01 00:52:00,
2013-05-31 20:57:00,77.2,27.5,-100.00,South,172,5.0,13.0,16,0.05,,,0.04,0.0,meteohub,2013-06-01 00:57:00,
2013-05-31 21:02:00,77.4,27.7,-100.00,SSW,194,4.0,9.0,16,0.04,,,0.04,0.0,meteohub,2013-06-01 01:02:00,
2013-05-31 21:07:00,77.7,26.4,-100.00,SSW,196,5.0,9.0,15,0.04,,,0.04,0.0,meteohub,2013-06-01 01:07:00,
2013-05-31 21:12:00,77.7,24.8,-100.00,South,181,6.0,9.0,14,0.04,,,0.06,0.0,meteohub,2013-06-01 01:12:00,
2013-05-31 21:17:00,78.1,25.0,-100.00,South,178,9.0,11.0,14,0.06,,,0.06,0.0,meteohub,2013-06-01 01:17:00,
2013-05-31 21:22:00,78.3,23.4,-100.00,SSW,206,4.0,11.0,13,0.06,,,0.06,0.0,meteohub,2013-06-01 01:22:00,
2013-05-31 21:27:00,78.3,23.4,-100.00,SSW,213,4.0,11.0,13,0.02,,,0.06,0.0,meteohub,2013-06-01 01:27:00,
2013-05-31 21:32:00,78.4,23.5,-100.00,SSW,202,5.0,11.0,13,0.02,,,0.06,0.0,meteohub,2013-06-01 01:32:00,
2013-05-31 21:37:00,78.4,23.5,-100.00,SSE,163,3.0,11.0,13,0.02,,,0.06,0.0,meteohub,2013-06-01 01:37:00,
2013-05-31 21:42:00,78.4,23.5,-100.00,SSW,213,4.0,11.0,13,0.02,,,0.06,0.0,meteohub,2013-06-01 01:42:00,
2013-05-31 21:47:00,78.6,23.7,-100.00,South,176,5.0,12.0,13,0.02,,,0.06,0.0,meteohub,2013-06-01 01:47:00,
2013-05-31 21:52:00,78.6,21.7,-100.00,South,188,3.0,12.0,12,0.02,,,0.06,0.0,meteohub,2013-06-01 01:52:00,
2013-05-31 21:57:00,78.6,21.7,-100.00,South,186,4.0,11.0,12,0.02,,,0.06,0.0,meteohub,2013-06-01 01:57:00,
2013-05-31 22:02:00,78.6,21.7,-100.00,South,182,4.0,11.0,12,0.02,,,0.06,0.0,meteohub,2013-06-01 02:02:00,
2013-05-31 22:07:00,78.6,23.7,-100.00,SSW,192,5.0,10.0,13,0.00,,,0.06,0.0,meteohub,2013-06-01 02:07:00,
2013-05-31 22:12:00,78.6,21.7,-100.00,SW,217,4.0,10.0,12,0.00,,,0.06,0.0,meteohub,2013-06-01 02:12:00,
2013-05-31 22:17:00,78.6,21.7,-100.00,SSE,167,7.0,10.0,12,0.00,,,0.06,0.0,meteohub,2013-06-01 02:17:00,
2013-05-31 22:22:00,78.6,23.7,-100.00,SSE,157,10.0,10.0,13,0.00,,,0.06,0.0,meteohub,2013-06-01 02:22:00,
2013-05-31 22:27:00,78.6,23.7,-100.00,South,176,5.0,13.0,13,0.00,,,0.06,0.0,meteohub,2013-06-01 02:27:00,
2013-05-31 22:32:00,78.4,23.5,-100.00,SSE,150,4.0,13.0,13,0.00,,,0.08,0.0,meteohub,2013-06-01 02:32:00,
2013-05-31 22:37:00,78.3,23.4,-100.00,SSW,192,4.0,13.0,13,0.02,,,0.08,0.0,meteohub,2013-06-01 02:37:00,
2013-05-31 22:42:00,78.3,25.2,-100.00,SSW,192,2.0,13.0,14,0.02,,,0.08,0.0,meteohub,2013-06-01 02:42:00,
2013-05-31 22:47:00,78.1,25.0,-100.00,SSE,165,3.0,12.0,14,0.02,,,0.08,0.0,meteohub,2013-06-01 02:47:00,
2013-05-31 22:52:00,78.3,25.2,-100.00,South,179,5.0,12.0,14,0.02,,,0.08,0.0,meteohub,2013-06-01 02:52:00,
2013-05-31 22:57:00,78.6,23.7,-100.00,SSW,206,9.0,12.0,13,0.02,,,0.08,0.0,meteohub,2013-06-01 02:57:00,
2013-05-31 23:02:00,78.4,23.5,-100.00,SE,136,9.0,12.0,13,0.02,,,0.08,0.0,meteohub,2013-06-01 03:02:00,
2013-05-31 23:07:00,78.6,23.7,-100.00,ESE,117,11.0,12.0,13,0.02,,,0.08,0.0,meteohub,2013-06-01 03:07:00,
2013-05-31 23:12:00,78.8,23.7,-100.00,SSW,196,6.0,12.0,13,0.02,,,0.08,0.0,meteohub,2013-06-01 03:12:00,
2013-05-31 23:17:00,79.0,22.1,-100.00,South,184,8.0,12.0,12,0.02,,,0.08,0.0,meteohub,2013-06-01 03:17:00,
2013-05-31 23:27:00,79.2,22.1,-100.00,SSE,163,10.0,12.0,12,0.02,,,0.08,0.0,meteohub,2013-06-01 03:27:00,
2013-05-31 23:32:00,79.2,22.1,-100.00,South,175,4.0,11.0,12,0.00,,,0.08,0.0,meteohub,2013-06-01 03:32:00,
2013-05-31 23:37:00,79.3,22.3,-100.00,SSW,198,3.0,11.0,12,0.00,,,0.08,0.0,meteohub,2013-06-01 03:37:00,
2013-05-31 23:42:00,79.5,22.5,-100.00,SSW,194,7.0,11.0,12,0.00,,,0.08,0.0,meteohub,2013-06-01 03:42:00,
2013-05-31 23:47:00,79.7,22.6,-100.00,South,187,2.0,11.0,12,0.00,,,0.08,0.0,meteohub,2013-06-01 03:47:00,
2013-05-31 23:52:00,79.3,22.3,-100.00,SSW,196,9.0,13.0,12,0.00,,,0.08,0.0,meteohub,2013-06-01 03:52:00,
2013-05-31 23:57:00,79.0,22.1,-100.00,SSW,207,9.0,13.0,12,0.00,,,0.08,0.0,meteohub,2013-06-01 03:57:00,